DLH8160 EDDF-KJFK

Flight info

Callsign DLH8160
Flight time N/A
Altitude 38000
Route OBOKA3W/25C OBOKA Z29 TORNU DCT BATAK DCT GALSO Q63 ERING L179 UGBET Q60 OKSAW DCT BIBPE DCT OKTAD DCT AZCAL DCT MEDOG DCT KRAGY DCT PEMOB DCT BAKUR DCT SHA DCT UNBEG DCT NEBIN/M080F390 NATG TUDEP/N0466F400 N526A TOPPS DCT ENE PARCH4
Aircraft A343/H-SDE2E3FGHIJ4J5M1RWXY/LB1D1

Departure

Time N/A
Airport Frankfurt Main Airport (EDDF)

Arrival

Time 2026-05-03 22:45
Airport John F. Kennedy International Airport (KJFK)
Time Latitude Longitude Altitude Speed Heading
2026-05-03 20:15 50.25123 -56.11463 39985 ft 415 kts 242°
2026-05-03 20:15 50.22442 -56.19418 39982 ft 415 kts 242°
2026-05-03 20:16 50.19761 -56.27346 39982 ft 415 kts 241°
2026-05-03 20:16 50.17061 -56.35309 39977 ft 414 kts 241°
2026-05-03 20:17 50.14362 -56.43241 39977 ft 413 kts 241°
2026-05-03 20:17 50.11663 -56.51151 39977 ft 413 kts 241°
2026-05-03 20:18 50.08975 -56.59005 39977 ft 413 kts 241°
2026-05-03 20:18 50.06267 -56.66889 39974 ft 413 kts 241°
2026-05-03 20:19 50.03559 -56.74751 39969 ft 413 kts 241°
2026-05-03 20:19 50.00839 -56.82623 39969 ft 412 kts 241°
2026-05-03 20:20 49.98117 -56.90478 39964 ft 412 kts 241°
2026-05-03 20:20 49.95410 -56.98265 39958 ft 412 kts 241°
2026-05-03 20:21 49.92683 -57.06086 39962 ft 412 kts 241°
2026-05-03 20:21 49.89948 -57.13903 39953 ft 411 kts 241°
2026-05-03 20:22 49.87220 -57.21678 39949 ft 410 kts 240°
2026-05-03 20:22 49.84492 -57.29430 39929 ft 410 kts 240°
2026-05-03 20:23 49.81751 -57.37195 39931 ft 410 kts 240°
2026-05-03 20:23 49.79025 -57.44896 39911 ft 410 kts 240°
2026-05-03 20:24 49.76280 -57.52625 39908 ft 409 kts 240°
2026-05-03 20:24 49.73562 -57.60259 39897 ft 405 kts 240°
2026-05-03 20:25 49.70833 -57.67897 39905 ft 405 kts 240°
2026-05-03 20:25 49.68102 -57.75525 39868 ft 406 kts 240°
2026-05-03 20:26 49.65359 -57.83155 39863 ft 406 kts 240°
2026-05-03 20:26 49.62611 -57.90777 39861 ft 406 kts 239°
2026-05-03 20:27 49.59867 -57.98367 39855 ft 404 kts 239°
2026-05-03 20:27 49.57148 -58.05870 39845 ft 403 kts 239°
2026-05-03 20:28 49.54406 -58.13411 39846 ft 403 kts 239°
2026-05-03 20:28 49.51660 -58.20942 39834 ft 403 kts 239°
2026-05-03 20:29 49.48904 -58.28478 39841 ft 403 kts 239°
2026-05-03 20:29 49.46149 -58.35990 39823 ft 402 kts 239°
2026-05-03 20:30 49.43415 -58.43422 39822 ft 402 kts 239°
2026-05-03 20:30 49.40654 -58.50906 39818 ft 402 kts 239°
2026-05-03 20:31 49.37891 -58.58377 39816 ft 402 kts 239°
2026-05-03 20:31 49.35124 -58.65834 39827 ft 402 kts 239°
2026-05-03 20:32 49.32359 -58.73263 39806 ft 404 kts 238°
2026-05-03 20:32 49.29566 -58.80751 39804 ft 404 kts 238°
2026-05-03 20:33 49.26763 -58.88242 39808 ft 404 kts 238°
2026-05-03 20:33 49.23958 -58.95717 39808 ft 404 kts 238°
2026-05-03 20:34 49.21169 -59.03129 39797 ft 405 kts 238°
2026-05-03 20:34 49.18353 -59.10591 39796 ft 405 kts 238°
2026-05-03 20:35 49.15530 -59.18049 39787 ft 405 kts 238°
2026-05-03 20:35 49.12710 -59.25480 39792 ft 405 kts 238°
2026-05-03 20:36 49.10357 -59.31662 39791 ft 405 kts 238°
2026-05-03 20:36 49.07523 -59.39090 39790 ft 405 kts 238°
2026-05-03 20:37 49.04683 -59.46515 39790 ft 405 kts 238°
2026-05-03 20:37 49.01839 -59.53925 39787 ft 405 kts 238°
2026-05-03 20:38 48.99011 -59.61276 39792 ft 405 kts 237°
2026-05-03 20:38 48.96147 -59.68700 39787 ft 407 kts 237°
2026-05-03 20:39 48.93273 -59.76127 39787 ft 407 kts 237°
2026-05-03 20:39 48.90394 -59.83548 39785 ft 406 kts 237°
2026-05-03 20:40 48.87542 -59.90879 39778 ft 405 kts 237°
2026-05-03 20:40 48.84666 -59.98251 39785 ft 405 kts 237°
2026-05-03 20:41 48.81788 -60.05606 39782 ft 405 kts 237°
2026-05-03 20:41 48.78925 -60.12904 39783 ft 405 kts 237°
2026-05-03 20:42 48.76040 -60.20240 39784 ft 404 kts 236°
2026-05-03 20:42 48.73159 -60.27543 39776 ft 403 kts 236°
2026-05-03 20:43 48.71156 -60.32608 39776 ft 403 kts 236°
2026-05-03 20:43 48.68291 -60.39834 39778 ft 403 kts 236°
2026-05-03 20:44 48.65404 -60.47097 39780 ft 403 kts 236°
2026-05-03 20:44 48.63025 -60.53070 39815 ft 403 kts 236°
2026-05-03 20:45 48.60525 -60.59328 39781 ft 404 kts 236°
2026-05-03 20:45 48.58415 -60.64601 39776 ft 405 kts 236°
2026-05-03 20:46 48.55505 -60.71857 39775 ft 405 kts 236°
2026-05-03 20:46 48.52580 -60.79129 39780 ft 405 kts 236°
2026-05-03 20:47 48.49644 -60.86408 39771 ft 405 kts 235°
2026-05-03 20:47 48.46729 -60.93618 39775 ft 405 kts 235°
2026-05-03 20:48 48.43770 -61.00913 39766 ft 406 kts 235°
2026-05-03 20:48 48.40838 -61.08126 39780 ft 406 kts 235°
2026-05-03 20:49 48.37887 -61.15362 39782 ft 406 kts 235°
2026-05-03 20:49 48.34924 -61.22612 39779 ft 406 kts 235°
2026-05-03 20:50 48.31976 -61.29801 39770 ft 407 kts 234°
2026-05-03 20:50 48.28991 -61.37063 39771 ft 409 kts 234°
2026-05-03 20:51 48.25992 -61.44340 39786 ft 409 kts 234°
2026-05-03 20:51 48.22969 -61.51655 39776 ft 413 kts 234°
2026-05-03 20:52 48.19950 -61.58941 39775 ft 414 kts 234°
2026-05-03 20:52 48.16897 -61.66290 39773 ft 416 kts 234°
2026-05-03 20:53 48.13829 -61.73653 39770 ft 417 kts 234°
2026-05-03 20:53 48.10752 -61.81021 39765 ft 417 kts 234°
2026-05-03 20:54 48.07667 -61.88387 39763 ft 417 kts 234°
2026-05-03 20:54 48.03029 -61.99420 39764 ft 419 kts 234°
2026-05-03 20:55 47.99930 -62.06766 39759 ft 422 kts 234°
2026-05-03 20:55 47.96795 -62.14179 39759 ft 422 kts 234°
2026-05-03 20:56 47.93657 -62.21581 39750 ft 422 kts 234°
2026-05-03 20:56 47.90505 -62.28995 39748 ft 422 kts 234°
2026-05-03 20:57 47.87369 -62.36348 39745 ft 422 kts 234°
2026-05-03 20:57 47.84208 -62.43743 39744 ft 423 kts 234°
2026-05-03 20:58 47.81043 -62.51125 39744 ft 423 kts 234°
2026-05-03 20:58 47.77868 -62.58511 39735 ft 423 kts 234°
2026-05-03 20:59 47.74716 -62.65824 39735 ft 423 kts 234°
2026-05-03 20:59 47.71536 -62.73182 39727 ft 423 kts 234°
2026-05-03 21:00 47.68890 -62.79285 39729 ft 423 kts 234°
2026-05-03 21:00 47.65161 -62.87869 39727 ft 423 kts 234°
2026-05-03 21:01 47.61986 -62.95160 39725 ft 423 kts 234°
2026-05-03 21:01 47.58788 -63.02480 39721 ft 423 kts 234°
2026-05-03 21:02 47.55578 -63.09808 39719 ft 423 kts 234°
2026-05-03 21:02 47.52368 -63.17118 39745 ft 423 kts 233°
2026-05-03 21:03 47.49164 -63.24391 39722 ft 425 kts 233°
2026-05-03 21:03 47.45922 -63.31733 39719 ft 426 kts 233°
2026-05-03 21:04 47.42682 -63.39050 39717 ft 426 kts 233°
2026-05-03 21:04 47.39428 -63.46383 39717 ft 426 kts 233°
2026-05-03 21:05 47.36183 -63.53672 39718 ft 426 kts 233°
2026-05-03 21:05 47.32922 -63.60979 39719 ft 426 kts 233°
2026-05-03 21:06 47.29652 -63.68287 39714 ft 427 kts 233°
2026-05-03 21:06 47.26393 -63.75550 39713 ft 427 kts 233°
2026-05-03 21:07 47.23113 -63.82842 39708 ft 427 kts 233°
2026-05-03 21:07 47.19826 -63.90131 39708 ft 427 kts 233°
2026-05-03 21:08 47.16531 -63.97416 39704 ft 427 kts 233°
2026-05-03 21:08 47.13236 -64.04683 39708 ft 428 kts 233°
2026-05-03 21:09 47.09928 -64.11958 39695 ft 428 kts 233°
2026-05-03 21:09 47.06620 -64.19216 39683 ft 428 kts 233°
2026-05-03 21:10 47.03310 -64.26459 39679 ft 428 kts 233°
2026-05-03 21:10 46.99994 -64.33696 39683 ft 428 kts 233°
2026-05-03 21:11 46.96661 -64.40949 39690 ft 429 kts 233°
2026-05-03 21:11 46.93345 -64.48148 39684 ft 429 kts 233°
2026-05-03 21:12 46.90003 -64.55385 39682 ft 429 kts 232°
2026-05-03 21:12 46.86655 -64.62614 39682 ft 429 kts 232°
2026-05-03 21:13 46.83323 -64.69793 39680 ft 430 kts 233°
2026-05-03 21:13 46.79957 -64.77023 39673 ft 430 kts 233°
2026-05-03 21:14 46.76585 -64.84249 39688 ft 432 kts 233°
2026-05-03 21:14 46.73190 -64.91505 39683 ft 433 kts 233°
2026-05-03 21:15 46.69806 -64.98719 39680 ft 433 kts 233°
2026-05-03 21:15 46.66395 -65.05972 39681 ft 434 kts 233°
2026-05-03 21:16 46.62977 -65.13221 39684 ft 434 kts 233°
2026-05-03 21:16 46.59560 -65.20449 39683 ft 434 kts 233°
2026-05-03 21:17 46.56716 -65.26451 39672 ft 434 kts 233°
2026-05-03 21:17 46.52700 -65.34903 39665 ft 435 kts 233°
2026-05-03 21:18 46.49277 -65.42086 39664 ft 435 kts 233°
2026-05-03 21:18 46.45829 -65.49305 39662 ft 435 kts 233°
2026-05-03 21:19 46.42377 -65.56513 39658 ft 435 kts 233°
2026-05-03 21:19 46.38917 -65.63719 39650 ft 436 kts 233°
2026-05-03 21:20 46.35447 -65.70925 39652 ft 437 kts 233°
2026-05-03 21:20 46.31979 -65.78113 39659 ft 437 kts 233°
2026-05-03 21:21 46.28498 -65.85306 39649 ft 437 kts 233°
2026-05-03 21:21 46.25007 -65.92504 39650 ft 437 kts 233°
2026-05-03 21:22 46.21506 -65.99701 39645 ft 437 kts 233°
2026-05-03 21:22 46.18026 -66.06837 39651 ft 437 kts 232°
2026-05-03 21:23 46.14519 -66.14012 39644 ft 437 kts 232°
2026-05-03 21:23 46.11009 -66.21174 39637 ft 437 kts 233°
2026-05-03 21:24 46.08085 -66.27126 39638 ft 437 kts 232°
2026-05-03 21:24 46.04571 -66.34263 39633 ft 437 kts 232°
2026-05-03 21:25 46.01053 -66.41388 39628 ft 437 kts 232°
2026-05-03 21:25 45.97518 -66.48532 39620 ft 437 kts 232°
2026-05-03 21:26 45.93986 -66.55650 39619 ft 437 kts 232°
2026-05-03 21:26 45.90455 -66.62751 39631 ft 437 kts 232°
2026-05-03 21:27 45.86933 -66.69813 39637 ft 437 kts 232°
2026-05-03 21:27 45.83390 -66.76900 39639 ft 437 kts 232°
2026-05-03 21:28 45.79838 -66.83989 39637 ft 437 kts 232°
2026-05-03 21:28 45.76285 -66.91060 39640 ft 437 kts 232°
2026-05-03 21:29 45.72725 -66.98127 39647 ft 437 kts 232°
2026-05-03 21:29 45.69181 -67.05147 39648 ft 437 kts 232°
2026-05-03 21:30 45.65606 -67.12210 39670 ft 437 kts 232°
2026-05-03 21:30 45.62034 -67.19247 39650 ft 438 kts 232°
2026-05-03 21:31 45.58472 -67.26250 39651 ft 438 kts 232°
2026-05-03 21:31 45.54878 -67.33297 39659 ft 438 kts 232°
2026-05-03 21:32 45.51286 -67.40324 39660 ft 438 kts 232°
2026-05-03 21:32 45.47683 -67.47354 39660 ft 439 kts 232°
2026-05-03 21:33 45.44102 -67.54325 39655 ft 438 kts 232°
2026-05-03 21:33 45.40494 -67.61330 39672 ft 438 kts 232°
2026-05-03 21:34 45.36877 -67.68336 39672 ft 439 kts 232°
2026-05-03 21:34 45.33154 -67.75149 39677 ft 438 kts 228°
2026-05-03 21:35 45.29119 -67.81646 39675 ft 438 kts 227°
2026-05-03 21:35 45.25031 -67.88074 39705 ft 438 kts 227°
2026-05-03 21:36 45.20932 -67.94491 39688 ft 439 kts 227°
2026-05-03 21:36 45.16857 -68.00874 39689 ft 439 kts 227°
2026-05-03 21:37 45.12759 -68.07285 39688 ft 439 kts 227°
2026-05-03 21:37 45.08646 -68.13709 39688 ft 439 kts 227°
2026-05-03 21:38 45.04562 -68.20070 39690 ft 439 kts 227°
2026-05-03 21:38 45.00444 -68.26469 39704 ft 439 kts 227°
2026-05-03 21:39 44.96315 -68.32871 39703 ft 440 kts 227°
2026-05-03 21:39 44.92190 -68.39252 39699 ft 440 kts 227°
2026-05-03 21:40 44.88061 -68.45622 39696 ft 440 kts 227°
2026-05-03 21:40 44.83948 -68.51956 39697 ft 440 kts 227°
2026-05-03 21:41 44.79806 -68.58321 39700 ft 440 kts 227°
2026-05-03 21:41 44.75690 -68.64629 39694 ft 440 kts 227°
2026-05-03 21:42 44.71548 -68.70965 39695 ft 440 kts 227°
2026-05-03 21:42 44.67397 -68.77299 39698 ft 440 kts 227°
2026-05-03 21:43 44.63236 -68.83633 39698 ft 440 kts 227°
2026-05-03 21:43 44.59103 -68.89910 39704 ft 440 kts 227°
2026-05-03 21:44 44.54938 -68.96222 39711 ft 440 kts 227°
2026-05-03 21:44 44.50771 -69.02523 39718 ft 440 kts 227°
2026-05-03 21:45 44.46630 -69.08770 39721 ft 440 kts 227°
2026-05-03 21:45 44.42457 -69.15051 39715 ft 440 kts 227°
2026-05-03 21:46 44.38288 -69.21313 39722 ft 440 kts 227°
2026-05-03 21:46 44.34117 -69.27564 39722 ft 440 kts 227°
2026-05-03 21:47 44.29942 -69.33806 39721 ft 440 kts 227°
2026-05-03 21:47 44.25784 -69.40009 39725 ft 439 kts 227°
2026-05-03 21:48 44.21599 -69.46238 39725 ft 439 kts 227°
2026-05-03 21:48 44.17398 -69.52477 39730 ft 439 kts 227°
2026-05-03 21:49 44.13239 -69.58641 39736 ft 439 kts 227°
2026-05-03 21:49 44.09048 -69.64838 39734 ft 439 kts 227°
2026-05-03 21:50 44.04854 -69.71025 39728 ft 439 kts 227°
2026-05-03 21:50 44.00675 -69.77178 39730 ft 439 kts 227°
2026-05-03 21:51 43.96479 -69.83341 39727 ft 439 kts 227°
2026-05-03 21:51 43.92281 -69.89493 39748 ft 438 kts 227°
2026-05-03 21:52 43.88091 -69.95621 39748 ft 438 kts 227°
2026-05-03 21:52 43.83899 -70.01738 39749 ft 438 kts 227°
2026-05-03 21:53 43.79699 -70.07853 39750 ft 438 kts 227°
2026-05-03 21:53 43.75517 -70.13929 39753 ft 438 kts 227°
2026-05-03 21:54 43.71310 -70.20028 39749 ft 438 kts 227°
2026-05-03 21:54 43.67101 -70.26117 39748 ft 438 kts 227°
2026-05-03 21:55 43.62910 -70.32167 39786 ft 438 kts 227°
2026-05-03 21:55 43.58684 -70.38254 39783 ft 438 kts 227°
2026-05-03 21:56 43.54457 -70.44329 39776 ft 439 kts 227°
2026-05-03 21:56 43.50251 -70.50361 39782 ft 439 kts 227°
2026-05-03 21:57 43.46015 -70.56423 39778 ft 438 kts 227°
2026-05-03 21:57 43.41517 -70.62064 39781 ft 442 kts 211°
2026-05-03 21:58 43.35730 -70.65006 39775 ft 445 kts 201°
2026-05-03 21:58 43.29875 -70.67694 39775 ft 446 kts 202°
2026-05-03 21:59 43.23998 -70.70519 39781 ft 446 kts 202°
2026-05-03 21:59 43.18153 -70.73367 39771 ft 446 kts 203°
2026-05-03 22:00 43.12299 -70.76225 39767 ft 446 kts 203°
2026-05-03 22:00 43.06472 -70.79069 39767 ft 446 kts 203°
2026-05-03 22:01 43.00621 -70.81920 39767 ft 446 kts 203°
2026-05-03 22:01 42.94748 -70.84776 39770 ft 446 kts 203°
2026-05-03 22:02 42.88898 -70.87614 39810 ft 446 kts 203°
2026-05-03 22:02 42.83085 -70.90429 39824 ft 446 kts 203°
2026-05-03 22:03 42.77228 -70.93265 39824 ft 446 kts 203°
2026-05-03 22:03 42.71353 -70.96093 39830 ft 446 kts 203°
2026-05-03 22:04 42.65507 -70.98905 39814 ft 446 kts 203°
2026-05-03 22:04 42.59686 -71.01700 39810 ft 446 kts 203°
2026-05-03 22:05 42.53846 -71.04499 39814 ft 445 kts 203°
2026-05-03 22:05 42.49471 -71.06593 39824 ft 445 kts 203°
2026-05-03 22:06 42.43669 -71.09365 39810 ft 445 kts 203°
2026-05-03 22:06 42.37825 -71.12151 39821 ft 445 kts 203°
2026-05-03 22:07 42.31988 -71.14929 39822 ft 445 kts 203°
2026-05-03 22:07 42.26180 -71.17687 39797 ft 444 kts 203°
2026-05-03 22:08 42.23251 -71.19075 39337 ft 442 kts 204°
2026-05-03 22:08 42.20341 -71.20454 38732 ft 444 kts 204°
2026-05-03 22:08 42.17412 -71.21843 37977 ft 448 kts 204°
2026-05-03 22:08 42.14503 -71.23219 37251 ft 451 kts 204°
2026-05-03 22:09 42.11532 -71.24623 36560 ft 453 kts 204°
2026-05-03 22:09 42.08551 -71.26029 35958 ft 454 kts 204°
2026-05-03 22:09 42.05562 -71.27437 35379 ft 453 kts 204°
2026-05-03 22:10 41.99636 -71.30224 34338 ft 446 kts 204°
2026-05-03 22:10 41.96775 -71.31565 33386 ft 439 kts 204°
2026-05-03 22:10 41.93859 -71.32933 32166 ft 435 kts 204°
2026-05-03 22:10 41.91065 -71.34243 31200 ft 425 kts 204°
2026-05-03 22:11 41.88299 -71.35533 30475 ft 406 kts 205°
2026-05-03 22:11 41.85708 -71.36741 29600 ft 394 kts 205°
2026-05-03 22:11 41.83145 -71.37941 28519 ft 385 kts 205°
2026-05-03 22:11 41.80632 -71.39118 27493 ft 377 kts 205°
2026-05-03 22:12 41.78188 -71.40261 26474 ft 370 kts 205°
2026-05-03 22:12 41.75776 -71.41395 25471 ft 365 kts 206°
2026-05-03 22:12 41.73479 -71.42679 24621 ft 354 kts 213°
2026-05-03 22:12 41.71377 -71.44309 24095 ft 347 kts 221°
2026-05-03 22:13 41.69462 -71.46262 23882 ft 345 kts 226°
2026-05-03 22:13 41.68250 -71.47609 23856 ft 340 kts 226°
2026-05-03 22:13 41.66442 -71.49638 23858 ft 339 kts 226°
2026-05-03 22:13 41.64629 -71.51672 23849 ft 339 kts 226°
2026-05-03 22:14 41.62232 -71.54353 23849 ft 339 kts 226°
2026-05-03 22:14 41.61015 -71.55713 23849 ft 339 kts 226°
2026-05-03 22:14 41.59199 -71.57738 23846 ft 340 kts 226°
2026-05-03 22:14 41.57377 -71.59769 23852 ft 341 kts 226°
2026-05-03 22:15 41.55554 -71.61797 23849 ft 342 kts 226°
2026-05-03 22:15 41.53747 -71.63806 23852 ft 342 kts 226°
2026-05-03 22:15 41.51897 -71.65861 23846 ft 341 kts 226°
2026-05-03 22:15 41.50092 -71.67863 23854 ft 340 kts 226°
2026-05-03 22:16 41.48273 -71.69879 23867 ft 340 kts 226°
2026-05-03 22:16 41.46453 -71.71897 23868 ft 340 kts 226°
2026-05-03 22:16 41.44637 -71.73909 23868 ft 340 kts 226°
2026-05-03 22:16 41.42818 -71.75922 23870 ft 340 kts 226°
2026-05-03 22:17 41.41003 -71.77930 23869 ft 340 kts 226°
2026-05-03 22:17 41.39198 -71.79924 23868 ft 340 kts 226°
2026-05-03 22:17 41.37381 -71.81931 23870 ft 340 kts 226°
2026-05-03 22:17 41.35558 -71.83943 23869 ft 340 kts 226°
2026-05-03 22:18 41.33737 -71.85952 23869 ft 340 kts 226°
2026-05-03 22:18 41.31935 -71.87937 23869 ft 340 kts 226°
2026-05-03 22:18 41.30112 -71.89945 23869 ft 340 kts 226°
2026-05-03 22:18 41.28296 -71.91941 23759 ft 336 kts 227°
2026-05-03 22:19 41.26490 -71.93927 23266 ft 338 kts 227°
2026-05-03 22:19 41.24678 -71.95918 22669 ft 337 kts 227°
2026-05-03 22:19 41.22885 -71.97885 22140 ft 335 kts 226°
2026-05-03 22:19 41.21092 -71.99850 21601 ft 333 kts 226°
2026-05-03 22:20 41.19304 -72.01808 21114 ft 331 kts 226°
2026-05-03 22:20 41.17537 -72.03743 20640 ft 328 kts 226°
2026-05-03 22:20 41.15789 -72.05653 20207 ft 324 kts 226°
2026-05-03 22:20 41.14075 -72.07528 19703 ft 323 kts 226°
2026-05-03 22:21 41.12347 -72.09417 19250 ft 321 kts 226°
2026-05-03 22:21 41.10712 -72.11382 18790 ft 313 kts 235°
2026-05-03 22:21 41.09547 -72.13725 18214 ft 297 kts 252°
2026-05-03 22:21 41.08829 -72.16266 17299 ft 292 kts 257°
2026-05-03 22:22 41.08212 -72.18825 16403 ft 290 kts 258°
2026-05-03 22:22 41.07601 -72.21365 15572 ft 288 kts 257°
2026-05-03 22:22 41.06989 -72.23878 14781 ft 286 kts 257°
2026-05-03 22:22 41.06373 -72.26390 14123 ft 287 kts 257°
2026-05-03 22:23 41.05753 -72.28903 13805 ft 287 kts 257°
2026-05-03 22:23 41.05132 -72.31409 13514 ft 284 kts 257°
2026-05-03 22:23 41.04517 -72.33881 13226 ft 282 kts 257°
2026-05-03 22:23 41.03907 -72.36334 12925 ft 280 kts 257°
2026-05-03 22:24 41.03297 -72.38782 12604 ft 278 kts 257°
2026-05-03 22:24 41.02701 -72.41173 12303 ft 276 kts 257°
2026-05-03 22:24 41.02100 -72.43582 12038 ft 274 kts 257°
2026-05-03 22:24 41.01501 -72.45978 11983 ft 273 kts 257°
2026-05-03 22:25 41.00904 -72.48366 11989 ft 274 kts 257°
2026-05-03 22:25 41.00310 -72.50740 11998 ft 274 kts 257°
2026-05-03 22:25 40.99709 -72.53136 12003 ft 274 kts 257°
2026-05-03 22:25 40.99111 -72.55521 12002 ft 274 kts 257°
2026-05-03 22:26 40.98510 -72.57913 12003 ft 274 kts 257°
2026-05-03 22:26 40.97909 -72.60303 11994 ft 274 kts 257°
2026-05-03 22:26 40.97313 -72.62668 11999 ft 274 kts 257°
2026-05-03 22:26 40.96709 -72.65069 12002 ft 275 kts 257°
2026-05-03 22:27 40.96104 -72.67468 12003 ft 275 kts 257°
2026-05-03 22:27 40.95496 -72.69875 12004 ft 275 kts 257°
2026-05-03 22:27 40.94888 -72.72278 12006 ft 275 kts 257°
2026-05-03 22:27 40.94283 -72.74666 11877 ft 273 kts 257°
2026-05-03 22:28 40.93679 -72.77049 11531 ft 273 kts 257°
2026-05-03 22:28 40.92901 -72.79350 11233 ft 279 kts 243°
2026-05-03 22:28 40.91569 -72.81268 10971 ft 288 kts 225°
2026-05-03 22:28 40.89978 -72.82840 10707 ft 289 kts 221°
2026-05-03 22:29 40.88339 -72.84380 10441 ft 288 kts 221°
2026-05-03 22:29 40.86714 -72.85915 10168 ft 287 kts 222°
2026-05-03 22:29 40.85098 -72.87450 9897 ft 285 kts 222°
2026-05-03 22:29 40.83489 -72.88984 9589 ft 284 kts 222°
2026-05-03 22:30 40.81895 -72.90507 9303 ft 283 kts 222°
2026-05-03 22:30 40.80305 -72.92027 9006 ft 282 kts 222°
2026-05-03 22:30 40.78717 -72.93546 8704 ft 280 kts 222°
2026-05-03 22:30 40.77143 -72.95052 8421 ft 279 kts 222°
2026-05-03 22:31 40.75562 -72.96562 8109 ft 279 kts 222°
2026-05-03 22:31 40.74018 -72.98036 7827 ft 277 kts 222°
2026-05-03 22:31 40.72456 -72.99526 7539 ft 277 kts 222°
2026-05-03 22:31 40.70860 -73.00949 7249 ft 277 kts 218°
2026-05-03 22:32 40.69199 -73.02245 6962 ft 276 kts 216°
2026-05-03 22:32 40.67534 -73.03500 6700 ft 275 kts 216°
2026-05-03 22:32 40.65869 -73.04747 6427 ft 273 kts 216°
2026-05-03 22:32 40.64216 -73.05981 6127 ft 272 kts 216°
2026-05-03 22:33 40.62594 -73.07190 5836 ft 271 kts 216°
2026-05-03 22:33 40.60956 -73.08417 5546 ft 270 kts 216°
2026-05-03 22:33 40.59368 -73.09714 5275 ft 265 kts 225°
2026-05-03 22:33 40.58106 -73.11409 5058 ft 256 kts 237°
2026-05-03 22:34 40.56996 -73.13236 5011 ft 255 kts 238°
2026-05-03 22:34 40.56048 -73.15180 5011 ft 250 kts 250°
2026-05-03 22:34 40.55563 -73.17333 5016 ft 244 kts 266°
2026-05-03 22:34 40.55402 -73.19547 4967 ft 242 kts 270°
2026-05-03 22:35 40.55305 -73.21756 4845 ft 242 kts 271°
2026-05-03 22:35 40.55223 -73.23974 4732 ft 242 kts 271°
2026-05-03 22:35 40.55148 -73.26168 4611 ft 239 kts 271°
2026-05-03 22:35 40.55077 -73.28364 4490 ft 241 kts 271°
2026-05-03 22:36 40.55007 -73.30539 4399 ft 238 kts 271°
2026-05-03 22:36 40.54937 -73.32740 4275 ft 240 kts 271°
2026-05-03 22:36 40.54869 -73.34882 4190 ft 233 kts 271°
2026-05-03 22:36 40.54800 -73.36965 4110 ft 221 kts 271°
2026-05-03 22:37 40.54735 -73.38935 3976 ft 211 kts 271°
2026-05-03 22:37 40.54674 -73.40829 3818 ft 202 kts 272°
2026-05-03 22:37 40.54616 -73.42643 3643 ft 195 kts 272°
2026-05-03 22:37 40.54559 -73.44407 3332 ft 191 kts 272°
2026-05-03 22:38 40.54505 -73.46116 3138 ft 187 kts 272°
2026-05-03 22:38 40.54451 -73.47775 3018 ft 174 kts 272°
2026-05-03 22:38 40.54397 -73.49273 3027 ft 155 kts 272°
2026-05-03 22:38 40.54352 -73.50678 3024 ft 152 kts 273°
2026-05-03 22:39 40.54312 -73.52080 3017 ft 154 kts 273°
2026-05-03 22:39 40.54482 -73.53450 3018 ft 152 kts 291°
2026-05-03 22:39 40.54881 -73.54704 3008 ft 150 kts 297°
2026-05-03 22:39 40.55364 -73.55925 3021 ft 150 kts 300°
2026-05-03 22:40 40.55862 -73.57097 2999 ft 141 kts 301°
2026-05-03 22:40 40.56334 -73.58182 3003 ft 134 kts 302°
2026-05-03 22:40 40.56814 -73.59236 2975 ft 135 kts 302°
2026-05-03 22:40 40.57296 -73.60308 2809 ft 135 kts 300°
2026-05-03 22:41 40.57773 -73.61370 2614 ft 134 kts 300°
2026-05-03 22:41 40.58245 -73.62410 2439 ft 133 kts 300°
2026-05-03 22:41 40.58709 -73.63433 2242 ft 126 kts 300°
2026-05-03 22:41 40.59137 -73.64378 2084 ft 116 kts 300°
2026-05-03 22:42 40.59547 -73.65282 1906 ft 115 kts 300°
2026-05-03 22:42 40.59958 -73.66190 1775 ft 118 kts 299°
2026-05-03 22:42 40.60382 -73.67124 1606 ft 120 kts 300°
2026-05-03 22:42 40.60808 -73.68063 1444 ft 120 kts 300°
2026-05-03 22:43 40.61236 -73.69007 1279 ft 120 kts 300°
2026-05-03 22:43 40.61667 -73.69960 1106 ft 122 kts 300°
2026-05-03 22:43 40.62104 -73.70924 941 ft 122 kts 300°
2026-05-03 22:43 40.62537 -73.71881 792 ft 122 kts 301°
2026-05-03 22:44 40.62968 -73.72830 631 ft 119 kts 302°
2026-05-03 22:44 40.63392 -73.73769 467 ft 121 kts 303°
2026-05-03 22:44 40.63820 -73.74709 312 ft 116 kts 303°
2026-05-03 22:44 40.64214 -73.75603 139 ft 110 kts 305°
2026-05-03 22:45 40.64626 -73.76497 62 ft 122 kts 306°
2026-05-03 22:45 40.65048 -73.77418 29 ft 112 kts 305°
2026-05-03 22:45 40.65326 -73.78025 29 ft 35 kts 300°
2026-05-03 22:45 40.65377 -73.78142 27 ft 11 kts 299°
2026-05-03 22:46 40.65414 -73.78228 29 ft 11 kts 299°
2026-05-03 22:46 40.65426 -73.78304 27 ft 5 kts 255°
2026-05-03 22:46 40.65396 -73.78366 28 ft 6 kts 218°
2026-05-03 22:46 40.65363 -73.78363 29 ft 6 kts 159°
2026-05-03 22:47 40.65293 -73.78238 30 ft 19 kts 120°
2026-05-03 22:47 40.65231 -73.78130 28 ft 9 kts 164°
2026-05-03 22:47 40.65170 -73.78121 27 ft 8 kts 152°
2026-05-03 22:47 40.65094 -73.77999 27 ft 24 kts 122°
2026-05-03 22:48 40.65009 -73.77812 28 ft 24 kts 121°
2026-05-03 22:48 40.64923 -73.77623 30 ft 25 kts 121°
2026-05-03 22:48 40.64832 -73.77420 26 ft 26 kts 120°
2026-05-03 22:48 40.64737 -73.77210 27 ft 28 kts 121°
2026-05-03 22:49 40.64602 -73.77086 31 ft 24 kts 178°
2026-05-03 22:49 40.64429 -73.77112 27 ft 25 kts 200°
2026-05-03 22:49 40.64272 -73.77228 27 ft 26 kts 210°
2026-05-03 22:49 40.64134 -73.77335 28 ft 23 kts 211°
2026-05-03 22:50 40.63990 -73.77448 26 ft 25 kts 211°
2026-05-03 22:50 40.63840 -73.77566 24 ft 20 kts 210°
2026-05-03 22:50 40.63779 -73.77624 27 ft 6 kts 237°
2026-05-03 22:50 40.63775 -73.77667 28 ft 4 kts 279°
2026-05-03 22:51 40.63808 -73.77717 27 ft 9 kts 322°
2026-05-03 22:51 40.63862 -73.77767 27 ft 10 kts 326°
2026-05-03 22:51 40.63906 -73.77806 27 ft 4 kts 326°
2026-05-03 22:51 40.63926 -73.77825 27 ft 2 kts 314°
2026-05-03 22:52 40.63937 -73.77836 27 ft 3 kts 332°
2026-05-03 22:52 40.64012 -73.77904 27 ft 13 kts 308°
2026-05-03 22:52 40.64038 -73.77979 27 ft 7 kts 281°
2026-05-03 22:52 40.64024 -73.78041 27 ft 8 kts 249°
2026-05-03 22:53 40.64014 -73.78074 27 ft 0 kts 248°